Location: Unspecified
(31.1038°S, 0.0000°E)
Time: 13:40:17
(UTC+00:00)

BREEZE-M DEB (TANK) - Pass Details

Date: 29 December 1899
Orbit: 408 x 17790 km, 52.9° (Epoch: 28 March)

Event Time Altitude Azimuth Distance (km) Brightness Sun altitude
Rises 22:36:01 0° 231° (SW) 7,765 8.9 -33.1°
Reaches altitude 10° 22:39:28 10° 228° (SW) 7,689 8.7 -33.4°
Maximum altitude 23:51:13 78° 111° (ESE) 16,990 9.5 -35.7°
Drops below altitude 10° 03:47:08 10° 6° (N) 16,219 9.4 -10.8°
Sets 03:59:11 0° 9° (N) 14,966 9.3 -8.7°
